Weather History for Cook, MN

Change the Weather History Date:

Thursday, February 21, 2013

  Actual Average Record
Temperature  
Mean Temperature 1 °F -  
Max Temperature 24 °F 26 °F 46 °F (2000)
Min Temperature -22 °F 5 °F -29 °F (2001)
Degree Days  
Heating Degree Days 64    
Moisture  
Dew Point -9 °F    
Average Humidity 61    
Maximum Humidity 92    
Minimum Humidity 30    
Precipitation  
Precipitation 0.00 in - - ()
Sea Level Pressure  
Sea Level Pressure 30.36 in    
Wind  
Wind Speed 1 mph (ENE)    
Max Wind Speed 7 mph    
Max Gust Speed -    
Visibility 10 miles    
Events      
Averages and records for this station are not official NWS values.
T = Trace of Precipitation, MM = Missing Value Source: NWS Daily Summary

Daily Weather History Graph

Daily Weather History Graph

Search for Another Location

Airport:

Trip Planner

Search our weather history database for the weather conditions in past years. The results will help you decide how hot, cold, wet, or windy it might be!

Date:

Astronomy

Feb. 21, 2013 Rise Set
Actual Time 7:05 AM CST 5:43 PM CST
Civil Twilight 6:34 AM CST 6:14 PM CST
Nautical Twilight 5:58 AM CST 6:50 PM CST
Astronomical Twilight 5:22 AM CST 7:26 PM CST
Moon 1:47 PM CST (2/21) 4:22 AM CST (2/21)
Length of Visible Light 11h 40m
Length of Day
10h 37m
Waxing Gibbous, 84% of the Moon is Illuminated
Feb 21
Waxing Gibbous
Feb 25
Full
Mar 4
Last Quarter
Mar 11
New
Mar 19
First Quarter

Hourly Weather History & Observations

Time (CST) Temp. Windchill Dew Point Humidity Pressure Visibility Wind Dir Wind Speed Gust Speed Precip Events Conditions
12:16 AM -13.0 °F - -20.2 °F 70% 30.41 in 10.0 mi Calm Calm - N/A   Clear
12:36 AM -14.8 °F - -20.2 °F 77% 30.41 in 10.0 mi Calm Calm - N/A   Clear
12:57 AM -13.0 °F - -18.4 °F 77% 30.44 in 10.0 mi Calm Calm - N/A   Clear
1:16 AM -14.8 °F - -20.2 °F 77% 30.43 in 10.0 mi Calm Calm - N/A   Clear
1:37 AM -14.8 °F - -20.2 °F 77% 30.44 in 10.0 mi Calm Calm - N/A   Clear
1:57 AM -14.8 °F - -20.2 °F 77% 30.44 in 10.0 mi Calm Calm - N/A   Clear
2:16 AM -14.8 °F - -20.2 °F 77% 30.44 in 10.0 mi Calm Calm - N/A   Clear
2:37 AM -14.8 °F - -20.2 °F 77% 30.44 in 10.0 mi Calm Calm - N/A   Clear
2:57 AM -16.6 °F - -22.0 °F 76% 30.43 in 10.0 mi Calm Calm - N/A   Clear
3:16 AM -16.6 °F - -22.0 °F 76% 30.44 in 10.0 mi Calm Calm - N/A   Clear
3:37 AM -16.6 °F - -20.2 °F 84% 30.43 in 10.0 mi Calm Calm - N/A   Clear
3:57 AM -13.0 °F - -18.4 °F 77% 30.43 in 10.0 mi Calm Calm - N/A   Clear
4:16 AM -16.6 °F - -22.0 °F 76% 30.43 in 10.0 mi Calm Calm - N/A   Clear
4:37 AM -16.6 °F - -23.8 °F 70% 30.44 in 10.0 mi Calm Calm - N/A   Clear
4:56 AM -18.4 °F - -23.8 °F 76% 30.45 in 10.0 mi Calm Calm - N/A   Clear
5:17 AM -18.4 °F - -23.8 °F 76% 30.46 in 10.0 mi Calm Calm - N/A   Clear
5:56 AM -18.4 °F - -23.8 °F 76% 30.46 in 10.0 mi Calm Calm - N/A   Clear
6:17 AM -20.2 °F - -25.6 °F 76% 30.46 in - Calm Calm - N/A   Clear
6:37 AM -20.2 °F - -27.4 °F 69% 30.46 in - Calm Calm - N/A   Clear
6:57 AM -22.0 °F - -27.4 °F 76% 30.45 in - Calm Calm - N/A   Clear
7:16 AM -20.2 °F - -27.4 °F 69% 30.44 in - Calm Calm - N/A   Clear
7:37 AM -20.2 °F - -25.6 °F 76% 30.42 in - Calm Calm - N/A   Clear
7:56 AM -18.4 °F - -25.6 °F 70% 30.41 in - Calm Calm - N/A   Clear
8:16 AM -11.2 °F -20.6 °F -18.4 °F 70% 30.40 in - East 3.5 mph - N/A   Clear
8:37 AM -4.0 °F -12.4 °F -13.0 °F 65% 30.38 in 10.0 mi ENE 3.5 mph - N/A   Clear
8:56 AM -0.4 °F - -13.0 °F 55% 30.39 in 10.0 mi Calm Calm - N/A   Clear
9:16 AM -0.4 °F -8.3 °F -11.2 °F 60% 30.43 in 10.0 mi South 3.5 mph - N/A   Clear
9:37 AM 1.4 °F - -9.4 °F 61% 30.46 in 10.0 mi Calm Calm - N/A   Clear
9:56 AM 5.0 °F - -7.6 °F 56% 30.46 in 10.0 mi Calm Calm - N/A   Clear
10:16 AM 6.8 °F - -7.6 °F 52% 30.45 in 10.0 mi Calm Calm - N/A   Clear
10:37 AM 8.6 °F - -5.8 °F 52% 30.45 in 10.0 mi Calm Calm - N/A   Clear
10:56 AM 10.4 °F - -7.6 °F 44% 30.43 in 10.0 mi Calm Calm - N/A   Clear
11:16 AM 12.2 °F 6.1 °F -7.6 °F 41% 30.41 in 10.0 mi NNE 3.5 mph - N/A   Clear
11:37 AM 14.0 °F 8.2 °F -7.6 °F 38% 30.41 in 10.0 mi NNE 3.5 mph - N/A   Clear
12:16 PM 17.6 °F 12.3 °F -7.6 °F 32% 30.40 in 10.0 mi East 3.5 mph - N/A   Clear
12:37 PM 17.6 °F 12.3 °F -5.8 °F 35% 30.39 in 10.0 mi NE 3.5 mph - N/A   Clear
12:56 PM 17.6 °F 10.7 °F -5.8 °F 35% 30.38 in 10.0 mi ENE 4.6 mph - N/A   Clear
1:17 PM 19.4 °F 12.8 °F -5.8 °F 33% 30.38 in 10.0 mi East 4.6 mph - N/A   Clear
1:36 PM 21.2 °F 14.9 °F -5.8 °F 30% 30.36 in 10.0 mi East 4.6 mph - N/A   Clear
1:57 PM 21.2 °F 13.6 °F -5.8 °F 30% 30.35 in 10.0 mi East 5.8 mph - N/A   Clear
2:17 PM 21.2 °F 14.9 °F -5.8 °F 30% 30.34 in 10.0 mi ENE 4.6 mph - N/A   Clear
2:36 PM 21.2 °F 14.9 °F -4.0 °F 33% 30.34 in 10.0 mi East 4.6 mph - N/A   Clear
2:57 PM 23.0 °F 17.0 °F -4.0 °F 31% 30.33 in 10.0 mi NE 4.6 mph - N/A   Clear
3:17 PM 23.0 °F - -2.2 °F 33% 30.32 in 10.0 mi Calm Calm - N/A   Clear
3:36 PM 24.8 °F 16.9 °F -2.2 °F 31% 30.31 in 10.0 mi East 6.9 mph - N/A   Clear
3:57 PM 23.0 °F 17.0 °F -2.2 °F 33% 30.31 in 10.0 mi East 4.6 mph - N/A   Clear
4:17 PM 23.0 °F 15.8 °F -0.4 °F 36% 30.31 in 10.0 mi ENE 5.8 mph - N/A   Clear
4:36 PM 23.0 °F - -0.4 °F 36% 30.30 in 10.0 mi Calm Calm - N/A   Clear
4:57 PM 21.2 °F 16.4 °F -0.4 °F 39% 30.30 in 10.0 mi NE 3.5 mph - N/A   Clear
5:17 PM 21.2 °F - -0.4 °F 39% 30.31 in 10.0 mi Calm Calm - N/A   Clear
5:36 PM 21.2 °F 16.4 °F -0.4 °F 39% 30.31 in 10.0 mi ENE 3.5 mph - N/A   Clear
5:57 PM 19.4 °F - -0.4 °F 42% 30.31 in 10.0 mi Calm Calm - N/A   Clear
6:17 PM 17.6 °F - -0.4 °F 45% 30.30 in 10.0 mi Calm Calm - N/A   Clear
6:36 PM 15.8 °F - 1.4 °F 53% 30.30 in 10.0 mi Calm Calm - N/A   Clear
6:57 PM 14.0 °F - 1.4 °F 57% 30.30 in 10.0 mi Calm Calm - N/A   Clear
7:16 PM 14.0 °F 8.2 °F 1.4 °F 57% 30.29 in 10.0 mi East 3.5 mph - N/A   Clear
7:37 PM 14.0 °F 8.2 °F 3.2 °F 62% 30.28 in 10.0 mi ENE 3.5 mph - N/A   Clear
7:57 PM 12.2 °F - 1.4 °F 62% 30.28 in 10.0 mi Calm Calm - N/A   Clear
8:16 PM 12.2 °F - 3.2 °F 67% 30.28 in 10.0 mi Calm Calm - N/A   Clear
8:37 PM 12.2 °F - 3.2 °F 67% 30.27 in 10.0 mi Calm Calm - N/A   Clear
8:56 PM 6.8 °F - 1.4 °F 79% 30.26 in 10.0 mi Calm Calm - N/A   Clear
9:17 PM 10.4 °F - 5.0 °F 79% 30.26 in 10.0 mi Calm Calm - N/A   Clear
9:37 PM 12.2 °F - 8.6 °F 85% 30.25 in 10.0 mi Calm Calm - N/A   Clear
9:56 PM 12.2 °F 4.3 °F 8.6 °F 85% 30.24 in 10.0 mi East 4.6 mph - N/A   Scattered Clouds
10:17 PM 12.2 °F 6.1 °F 8.6 °F 85% 30.23 in 10.0 mi ENE 3.5 mph - N/A   Mostly Cloudy
10:36 PM 12.2 °F - 8.6 °F 85% 30.22 in 10.0 mi Calm Calm - N/A   Overcast
10:56 PM 12.2 °F 6.1 °F 8.6 °F 85% 30.22 in 10.0 mi ENE 3.5 mph - N/A   Overcast
11:16 PM 12.2 °F 6.1 °F 10.4 °F 92% 30.21 in 10.0 mi ENE 3.5 mph - N/A   Overcast
11:36 PM 12.2 °F - 10.4 °F 92% 30.20 in 10.0 mi Calm Calm - N/A   Overcast